Location: Presov
(49.0000°N, 21.2500°E)
Time: 09:45:56
(UTC+02:00)

A-11 Canister half - Pass Details

Date: 22 April 2021
Orbit: 1526 x 1683 km, 47.3° (Epoch: 11 May)

Event Time Altitude Azimuth Distance (km) Brightness Sun altitude
Rises 22:54:48 0° 289° (WNW) 4,940 12.3 -24.8°
Reaches altitude 10° 22:59:09 10° 273° (W) 3,943 11.5 -25.1°
Maximum altitude 23:05:36 19° 233° (SW) 3,226 10.5 -25.5°
Enters shadow 23:08:34 17° 212° (SSW) 3,373 10.5 -25.7°
